This demonstration page uses our WeatherBlox Daily Observations layout. Learn more.

Left ArrowRight Arrow

34.02893, -84.19858

Hourly Observations for August 31, 2022

Temp ( °F °C ) Dew Point ( °F °C ) Humidity (%) Winds ( mph kmh ) Pressure ( in mb ) Visibility ( mi km ) Precip ( " mm )
12:53 am 00:53 Mostly Clear 72 22.2 71 21.7 97 97 Calm 29.96 1015 7 11 0.00 0.00
1:06 am 01:06 Mostly Cloudy 72 22.2 71 21.7 97 97 WNW 5 7 29.98 1015 7 11 0.00 0.00
1:18 am 01:18 Cloudy with Mist and Fog 72 22.2 72 22.2 100 100 NW 6 9 29.98 1015 6 10 0.00 0.00
1:53 am 01:53 Cloudy with Mist and Fog 73 22.8 72 22.2 96 96 NW 6 9 29.95 1014 6 10 0.00 0.00
2:53 am 02:53 Mostly Cloudy 72 22.2 71 21.7 97 97 NNW 5 7 29.93 1014 7 11 0.00 0.00
3:53 am 03:53 Mostly Cloudy 73 22.8 72 22.2 96 96 NW 3 6 29.94 1014 9 14 0.00 0.00
4:53 am 04:53 Mostly Cloudy 72 22.2 71 21.7 97 97 N 6 9 29.97 1015 10 16 0.00 0.00
5:38 am 05:38 Partly Cloudy 71 21.7 70 21.1 96 96 N 5 7 29.98 1015 10 16 0.00 0.00
5:53 am 05:53 Mostly Clear 71 21.7 70 21.1 96 96 N 3 6 29.97 1015 10 16 0.00 0.00
6:53 am 06:53 Clear 70 21.1 69 20.6 97 97 N 3 6 29.98 1015 10 16 0.00 0.00
7:53 am 07:53 Sunny 71 21.7 70 21.1 96 96 NNW 5 7 29.98 1015 10 16 0.00 0.00
8:53 am 08:53 Sunny 75 23.9 71 21.7 88 88 N 5 7 30.00 1016 10 16 0.00 0.00
9:53 am 09:53 Sunny 78 25.6 71 21.7 79 79 N 5 7 29.99 1016 10 16 0.00 0.00
10:53 am 10:53 Sunny 81 27.2 70 21.1 69 69 VRB 5 7 30.00 1016 10 16 0.01 0.13
11:53 am 11:53 Sunny 83 28.3 70 21.1 65 65 VRB 3 6 30.00 1016 10 16 0.00 0.00
12:53 pm 12:53 Sunny 85 29.4 68 20 57 57 undefined N/A 29.99 1016 10 16 0.00 0.00
12:56 pm 12:56 Sunny 86 30 69 20.6 57 57 Calm 29.98 1015 10 16 0.00 0.00
1:53 pm 13:53 Mostly Sunny 87 30.6 64 17.8 46 46 Calm 29.97 1015 10 16 0.00 0.00
2:53 pm 14:53 Sunny 88 31.1 61 16.1 41 41 NNW 8 13 29.96 1015 10 16 0.00 0.00
3:53 pm 15:53 Sunny 88 31.1 59 15 38 38 VRB 3 6 29.94 1014 10 16 0.00 0.00
4:53 pm 16:53 Sunny 87 30.6 57 13.9 36 36 VRB 6 9 29.92 1013 10 16 0.00 0.00
5:53 pm 17:53 Sunny 87 30.6 57 13.9 36 36 W 8 13 29.92 1013 10 16 0.00 0.00
6:53 pm 18:53 Sunny 85 29.4 59 15 42 42 W 6 9 29.92 1013 10 16 0.00 0.00
7:53 pm 19:53 Sunny 80 26.7 60 15.6 51 51 W 7 11 29.93 1014 10 16 0.00 0.00
8:53 pm 20:53 Clear 77 25 61 16.1 58 58 NW 7 11 29.94 1014 10 16 0.00 0.00
9:53 pm 21:53 Clear 72 22.2 63 17.2 73 73 Calm 29.97 1015 10 16 0.00 0.00
10:53 pm 22:53 Clear 68 20 63 17.2 84 84 Calm 29.97 1015 10 16 0.00 0.00
11:53 pm 23:53 Clear 67 19.4 63 17.2 87 87 Calm 29.97 1015 10 16 0.00 0.00

Powered by AerisWeather